"datetime","temp","dp","rain_mm","uv","solar","mb","wind_mph","gust_mph","windchill","rh"
"2022-04-29 00:00:00",9.3,6.2,0.0,0.0,0,1030.5,0,0,"",81
"2022-04-29 00:01:00",9.3,6.2,0.0,0.0,0,1030.5,0,1,"",81
"2022-04-29 00:02:00",9.3,6.2,0.0,0.0,0,1030.5,0,1,"",81
"2022-04-29 00:03:00",9.2,6.1,0.0,0.0,0,1030.5,0,1,"",81
"2022-04-29 00:04:00",9.2,6.1,0.0,0.0,0,1030.5,0,1,"",81
"2022-04-29 00:05:00",9.2,6.1,0.0,0.0,0,1030.5,1,1,"",81
"2022-04-29 00:06:00",9.3,6.2,0.0,0.0,0,1030.5,0,1,"",81
"2022-04-29 00:07:00",9.2,6.1,0.0,0.0,0,1030.5,0,1,"",81
"2022-04-29 00:08:00",9.2,6.3,0.0,0.0,0,1030.4,0,1,"",82
"2022-04-29 00:09:00",9.1,6.2,0.0,0.0,0,1030.4,1,2,"",82
"2022-04-29 00:10:00",9.1,6.2,0.0,0.0,0,1030.5,1,3,"",82
"2022-04-29 00:11:00",9.1,6.2,0.0,0.0,0,1030.4,0,1,"",82
"2022-04-29 00:12:00",9.1,6.4,0.0,0.0,0,1030.4,0,2,"",83
"2022-04-29 00:13:00",9.0,6.1,0.0,0.0,0,1030.4,1,2,"",82
"2022-04-29 00:14:00",8.9,6.0,0.0,0.0,0,1030.4,0,1,"",82
"2022-04-29 00:15:00",8.9,6.2,0.0,0.0,0,1030.5,0,2,"",83
"2022-04-29 00:16:00",8.9,6.0,0.0,0.0,0,1030.4,1,2,"",82
"2022-04-29 00:17:00",8.9,6.2,0.0,0.0,0,1030.5,0,1,"",83
"2022-04-29 00:18:00",9.0,6.1,0.0,0.0,0,1030.4,0,1,"",82
"2022-04-29 00:19:00",8.9,6.0,0.0,0.0,0,1030.4,1,2,"",82
"2022-04-29 00:20:00",8.9,6.2,0.0,0.0,0,1030.4,1,1,"",83
"2022-04-29 00:21:00",8.9,6.2,0.0,0.0,0,1030.4,1,2,"",83
"2022-04-29 00:22:00",8.9,6.2,0.0,0.0,0,1030.4,1,1,"",83
"2022-04-29 00:23:00",8.9,6.2,0.0,0.0,0,1030.4,1,1,"",83
"2022-04-29 00:24:00",8.9,6.2,0.0,0.0,0,1030.4,0,0,"",83
"2022-04-29 00:25:00",8.8,6.1,0.0,0.0,0,1030.4,0,1,"",83
"2022-04-29 00:26:00",8.8,6.1,0.0,0.0,0,1030.4,0,1,"",83
"2022-04-29 00:27:00",8.8,6.1,0.0,0.0,0,1030.4,0,1,"",83
"2022-04-29 00:28:00",8.7,6.0,0.0,0.0,0,1030.4,0,1,"",83
"2022-04-29 00:29:00",8.7,6.0,0.0,0.0,0,1030.5,0,1,"",83
"2022-04-29 00:30:00",8.7,6.0,0.0,0.0,0,1030.5,0,1,"",83
"2022-04-29 00:31:00",8.7,6.0,0.0,0.0,0,1030.5,0,1,"",83
"2022-04-29 00:32:00",8.7,6.1,0.0,0.0,0,1030.5,1,2,"",84
"2022-04-29 00:33:00",8.7,6.1,0.0,0.0,0,1030.5,1,2,"",84
"2022-04-29 00:34:00",8.7,6.1,0.0,0.0,0,1030.5,1,3,"",84
"2022-04-29 00:35:00",8.7,6.1,0.0,0.0,0,1030.5,0,1,"",84
"2022-04-29 00:36:00",8.7,6.1,0.0,0.0,0,1030.5,0,1,"",84
"2022-04-29 00:37:00",8.7,6.1,0.0,0.0,0,1030.5,0,1,"",84
"2022-04-29 00:38:00",8.7,6.1,0.0,0.0,0,1030.5,0,0,"",84
"2022-04-29 00:39:00",8.7,6.1,0.0,0.0,0,1030.5,0,1,"",84
"2022-04-29 00:40:00",8.6,6.0,0.0,0.0,0,1030.5,0,1,"",84
"2022-04-29 00:41:00",8.6,6.0,0.0,0.0,0,1030.6,1,2,"",84
"2022-04-29 00:42:00",8.6,6.0,0.0,0.0,0,1030.5,0,1,"",84
"2022-04-29 00:43:00",8.5,6.0,0.0,0.0,0,1030.5,0,0,"",84
"2022-04-29 00:44:00",8.5,6.0,0.0,0.0,0,1030.5,0,0,"",84
"2022-04-29 00:45:00",8.5,6.0,0.0,0.0,0,1030.6,0,0,"",84
"2022-04-29 00:46:00",8.5,6.0,0.0,0.0,0,1030.6,0,1,"",84
"2022-04-29 00:47:00",8.4,5.9,0.0,0.0,0,1030.6,0,0,"",84
"2022-04-29 00:48:00",8.4,5.9,0.0,0.0,0,1030.6,1,2,"",84
"2022-04-29 00:49:00",8.4,5.9,0.0,0.0,0,1030.6,0,2,"",84
"2022-04-29 00:50:00",8.4,5.9,0.0,0.0,0,1030.6,0,0,"",84
"2022-04-29 00:51:00",8.4,5.9,0.0,0.0,0,1030.6,1,2,"",84
"2022-04-29 00:52:00",8.4,5.9,0.0,0.0,0,1030.6,0,1,"",84
"2022-04-29 00:53:00",8.4,5.9,0.0,0.0,0,1030.6,0,1,"",84
"2022-04-29 00:54:00",8.4,6.0,0.0,0.0,0,1030.6,0,1,"",85
"2022-04-29 00:55:00",8.4,6.0,0.0,0.0,0,1030.6,1,2,"",85
"2022-04-29 00:56:00",8.4,6.0,0.0,0.0,0,1030.6,0,1,"",85
"2022-04-29 00:57:00",8.4,6.0,0.0,0.0,0,1030.6,0,1,"",85
"2022-04-29 00:58:00",8.4,6.0,0.0,0.0,0,1030.6,0,1,"",85
"2022-04-29 00:59:00",8.4,6.0,0.0,0.0,0,1030.6,0,2,"",85
"2022-04-29 01:00:00",8.3,5.9,0.0,0.0,0,1030.6,1,2,"",85
"2022-04-29 01:01:00",8.3,5.9,0.0,0.0,0,1030.5,1,2,"",85
"2022-04-29 01:02:00",8.3,5.9,0.0,0.0,0,1030.6,2,3,"",85
"2022-04-29 01:03:00",8.3,5.9,0.0,0.0,0,1030.5,1,2,"",85
"2022-04-29 01:04:00",8.2,5.8,0.0,0.0,0,1030.5,1,2,"",85
"2022-04-29 01:05:00",8.2,5.8,0.0,0.0,0,1030.5,1,2,"",85
"2022-04-29 01:06:00",8.2,6.0,0.0,0.0,0,1030.6,1,2,"",86
"2022-04-29 01:07:00",8.1,5.7,0.0,0.0,0,1030.6,0,1,"",85
"2022-04-29 01:08:00",8.1,5.9,0.0,0.0,0,1030.6,1,2,"",86
"2022-04-29 01:09:00",8.1,5.9,0.0,0.0,0,1030.6,0,1,"",86
"2022-04-29 01:10:00",8.1,5.9,0.0,0.0,0,1030.6,0,0,"",86
"2022-04-29 01:11:00",8.1,5.9,0.0,0.0,0,1030.6,0,1,"",86
"2022-04-29 01:12:00",8.1,5.9,0.0,0.0,0,1030.6,1,2,"",86
"2022-04-29 01:13:00",8.1,5.9,0.0,0.0,0,1030.6,0,1,"",86
"2022-04-29 01:14:00",8.1,5.7,0.0,0.0,0,1030.5,1,2,"",85
"2022-04-29 01:15:00",8.1,5.9,0.0,0.0,0,1030.6,1,2,"",86
"2022-04-29 01:16:00",8.1,5.9,0.0,0.0,0,1030.6,0,1,"",86
"2022-04-29 01:17:00",7.9,5.5,0.0,0.0,0,1030.6,0,0,"",85
"2022-04-29 01:18:00",7.9,5.5,0.0,0.0,0,1030.6,0,0,"",85
"2022-04-29 01:19:00",7.8,5.4,0.0,0.0,0,1030.6,0,1,"",85
"2022-04-29 01:20:00",7.8,5.6,0.0,0.0,0,1030.6,0,1,"",86
"2022-04-29 01:21:00",7.7,5.5,0.0,0.0,0,1030.6,0,0,"",86
"2022-04-29 01:22:00",7.7,5.5,0.0,0.0,0,1030.6,0,0,"",86
"2022-04-29 01:23:00",7.7,5.5,0.0,0.0,0,1030.6,0,0,"",86
"2022-04-29 01:24:00",7.7,5.7,0.0,0.0,0,1030.6,0,1,"",87
"2022-04-29 01:25:00",7.7,5.5,0.0,0.0,0,1030.6,0,0,"",86
"2022-04-29 01:26:00",7.6,5.4,0.0,0.0,0,1030.6,0,0,"",86
"2022-04-29 01:27:00",7.5,5.5,0.0,0.0,0,1030.6,0,0,"",87
"2022-04-29 01:28:00",7.5,5.5,0.0,0.0,0,1030.6,0,1,"",87
"2022-04-29 01:29:00",7.4,5.4,0.0,0.0,0,1030.6,0,1,"",87
"2022-04-29 01:30:00",7.4,5.4,0.0,0.0,0,1030.5,0,1,"",87
"2022-04-29 01:31:00",7.3,5.3,0.0,0.0,0,1030.6,0,1,"",87
"2022-04-29 01:32:00",7.4,5.5,0.0,0.0,0,1030.6,0,1,"",88
"2022-04-29 01:33:00",7.3,5.3,0.0,0.0,0,1030.6,0,1,"",87
"2022-04-29 01:34:00",7.3,5.3,0.0,0.0,0,1030.6,0,1,"",87
"2022-04-29 01:35:00",7.2,5.2,0.0,0.0,0,1030.5,0,1,"",87
"2022-04-29 01:36:00",7.2,5.2,0.0,0.0,0,1030.5,0,1,"",87
"2022-04-29 01:37:00",7.1,5.2,0.0,0.0,0,1030.5,0,0,"",88
"2022-04-29 01:38:00",7.1,5.2,0.0,0.0,0,1030.5,0,1,"",88
"2022-04-29 01:39:00",6.9,5.0,0.0,0.0,0,1030.5,0,0,"",88
"2022-04-29 01:40:00",6.9,5.0,0.0,0.0,0,1030.5,0,0,"",88
"2022-04-29 01:41:00",6.8,5.0,0.0,0.0,0,1030.5,0,0,"",88
"2022-04-29 01:42:00",6.8,5.0,0.0,0.0,0,1030.5,0,1,"",88
"2022-04-29 01:43:00",6.7,4.9,0.0,0.0,0,1030.5,0,1,"",88
"2022-04-29 01:44:00",6.7,4.9,0.0,0.0,0,1030.5,0,1,"",88
"2022-04-29 01:45:00",6.6,4.8,0.0,0.0,0,1030.5,0,1,"",88
"2022-04-29 01:46:00",6.6,4.9,0.0,0.0,0,1030.5,0,1,"",89
"2022-04-29 01:47:00",6.6,4.9,0.0,0.0,0,1030.5,0,0,"",89
"2022-04-29 01:48:00",6.6,4.9,0.0,0.0,0,1030.5,0,0,"",89
"2022-04-29 01:49:00",6.5,4.8,0.0,0.0,0,1030.5,0,0,"",89
"2022-04-29 01:50:00",6.4,4.7,0.0,0.0,0,1030.5,0,0,"",89
"2022-04-29 01:51:00",6.4,4.7,0.0,0.0,0,1030.4,0,0,"",89
"2022-04-29 01:52:00",6.3,4.6,0.0,0.0,0,1030.5,0,0,"",89
"2022-04-29 01:53:00",6.3,4.6,0.0,0.0,0,1030.5,0,0,"",89
"2022-04-29 01:54:00",6.3,4.6,0.0,0.0,0,1030.5,0,0,"",89
"2022-04-29 01:55:00",6.2,4.5,0.0,0.0,0,1030.5,0,1,"",89
"2022-04-29 01:56:00",6.2,4.5,0.0,0.0,0,1030.5,0,0,"",89
"2022-04-29 01:57:00",6.1,4.4,0.0,0.0,0,1030.5,0,0,"",89
"2022-04-29 01:58:00",6.1,4.4,0.0,0.0,0,1030.5,0,0,"",89
"2022-04-29 01:59:00",6.1,4.6,0.0,0.0,0,1030.5,0,1,"",90
"2022-04-29 02:00:00",6.1,4.6,0.0,0.0,0,1030.5,0,1,"",90
"2022-04-29 02:01:00",6.1,4.6,0.0,0.0,0,1030.4,0,1,"",90
"2022-04-29 02:02:00",5.9,4.4,0.0,0.0,0,1030.4,0,0,"",90
"2022-04-29 02:03:00",5.9,4.4,0.0,0.0,0,1030.4,0,0,"",90
"2022-04-29 02:04:00",5.9,4.4,0.0,0.0,0,1030.4,0,1,"",90
"2022-04-29 02:05:00",5.8,4.3,0.0,0.0,0,1030.4,0,1,"",90
"2022-04-29 02:06:00",5.8,4.3,0.0,0.0,0,1030.4,0,1,"",90
"2022-04-29 02:07:00",5.7,4.2,0.0,0.0,0,1030.4,0,1,"",90
"2022-04-29 02:08:00",5.7,4.2,0.0,0.0,0,1030.4,0,1,"",90
"2022-04-29 02:09:00",5.6,4.1,0.0,0.0,0,1030.4,0,1,"",90
"2022-04-29 02:10:00",5.6,4.2,0.0,0.0,0,1030.4,0,1,"",91
"2022-04-29 02:11:00",5.6,4.2,0.0,0.0,0,1030.4,0,0,"",91
"2022-04-29 02:12:00",5.6,4.2,0.0,0.0,0,1030.4,0,0,"",91
"2022-04-29 02:13:00",5.6,4.2,0.0,0.0,0,1030.4,0,0,"",91
"2022-04-29 02:14:00",5.5,4.1,0.0,0.0,0,1030.4,0,1,"",91
"2022-04-29 02:15:00",5.4,3.9,0.0,0.0,0,1030.4,0,1,"",90
"2022-04-29 02:16:00",5.4,4.0,0.0,0.0,0,1030.4,0,0,"",91
"2022-04-29 02:17:00",5.4,4.0,0.0,0.0,0,1030.3,0,1,"",91
"2022-04-29 02:18:00",5.3,3.9,0.0,0.0,0,1030.4,0,1,"",91
"2022-04-29 02:19:00",5.3,3.9,0.0,0.0,0,1030.3,0,0,"",91
"2022-04-29 02:20:00",5.3,3.9,0.0,0.0,0,1030.3,0,0,"",91
"2022-04-29 02:21:00",5.3,3.9,0.0,0.0,0,1030.4,0,0,"",91
"2022-04-29 02:22:00",5.3,3.9,0.0,0.0,0,1030.3,0,1,"",91
"2022-04-29 02:23:00",5.2,3.9,0.0,0.0,0,1030.3,0,0,"",91
"2022-04-29 02:24:00",5.2,3.9,0.0,0.0,0,1030.3,0,0,"",91
"2022-04-29 02:25:00",5.2,3.9,0.0,0.0,0,1030.3,0,1,"",91
"2022-04-29 02:26:00",5.1,3.9,0.0,0.0,0,1030.3,0,1,"",92
"2022-04-29 02:27:00",5.1,3.9,0.0,0.0,0,1030.3,0,0,"",92
"2022-04-29 02:28:00",5.1,3.9,0.0,0.0,0,1030.2,0,1,"",92
"2022-04-29 02:29:00",5.1,3.9,0.0,0.0,0,1030.2,0,0,"",92
"2022-04-29 02:30:00",5.1,3.9,0.0,0.0,0,1030.2,0,0,"",92
"2022-04-29 02:31:00",5.1,3.9,0.0,0.0,0,1030.2,0,1,"",92
"2022-04-29 02:32:00",5.0,3.8,0.0,0.0,0,1030.1,0,0,"",92
"2022-04-29 02:33:00",4.9,3.7,0.0,0.0,0,1030.1,0,0,"",92
"2022-04-29 02:34:00",4.9,3.7,0.0,0.0,0,1030.1,0,0,"",92
"2022-04-29 02:35:00",4.9,3.7,0.0,0.0,0,1030.1,0,0,"",92
"2022-04-29 02:36:00",4.9,3.7,0.0,0.0,0,1030.1,0,1,"",92
"2022-04-29 02:37:00",4.9,3.7,0.0,0.0,0,1030.1,0,0,"",92
"2022-04-29 02:38:00",4.8,3.6,0.0,0.0,0,1030.0,0,0,"",92
"2022-04-29 02:39:00",4.8,3.6,0.0,0.0,0,1030.0,0,1,"",92
"2022-04-29 02:40:00",4.8,3.6,0.0,0.0,0,1030.0,0,1,"",92
"2022-04-29 02:41:00",4.8,3.6,0.0,0.0,0,1030.0,0,1,"",92
"2022-04-29 02:42:00",4.7,3.5,0.0,0.0,0,1030.0,0,1,"",92
"2022-04-29 02:43:00",4.7,3.5,0.0,0.0,0,1029.9,0,1,"",92
"2022-04-29 02:44:00",4.7,3.5,0.0,0.0,0,1029.9,0,1,"",92
"2022-04-29 02:45:00",4.7,3.7,0.0,0.0,0,1030.0,0,0,"",93
"2022-04-29 02:46:00",4.7,3.5,0.0,0.0,0,1029.9,0,0,"",92
"2022-04-29 02:47:00",4.7,3.5,0.0,0.0,0,1029.9,0,1,"",92
"2022-04-29 02:48:00",4.7,3.5,0.0,0.0,0,1029.9,0,1,"",92
"2022-04-29 02:49:00",4.6,3.4,0.0,0.0,0,1029.9,0,1,"",92
"2022-04-29 02:50:00",4.6,3.4,0.0,0.0,0,1029.8,0,1,"",92
"2022-04-29 02:51:00",4.6,3.4,0.0,0.0,0,1029.9,0,1,"",92
"2022-04-29 02:52:00",4.6,3.4,0.0,0.0,0,1029.9,0,1,"",92
"2022-04-29 02:53:00",4.6,3.4,0.0,0.0,0,1029.9,0,0,"",92
"2022-04-29 02:54:00",4.5,3.3,0.0,0.0,0,1029.9,0,1,"",92
"2022-04-29 02:55:00",4.5,3.3,0.0,0.0,0,1029.9,0,1,"",92
"2022-04-29 02:56:00",4.4,3.2,0.0,0.0,0,1029.9,0,1,"",92
"2022-04-29 02:57:00",4.4,3.2,0.0,0.0,0,1029.9,1,1,"",92
"2022-04-29 02:58:00",4.4,3.4,0.0,0.0,0,1029.9,0,0,"",93
"2022-04-29 02:59:00",4.4,3.4,0.0,0.0,0,1029.9,0,0,"",93
"2022-04-29 03:00:00",4.3,3.3,0.0,0.0,0,1029.9,0,0,"",93
"2022-04-29 03:01:00",4.3,3.3,0.0,0.0,0,1029.8,0,0,"",93
"2022-04-29 03:02:00",4.3,3.3,0.0,0.0,0,1029.8,0,0,"",93
"2022-04-29 03:03:00",4.3,3.3,0.0,0.0,0,1029.8,0,0,"",93
"2022-04-29 03:04:00",4.3,3.3,0.0,0.0,0,1029.8,0,0,"",93
"2022-04-29 03:05:00",4.2,3.2,0.0,0.0,0,1029.8,0,0,"",93
"2022-04-29 03:06:00",4.2,3.2,0.0,0.0,0,1029.8,0,1,"",93
"2022-04-29 03:07:00",4.2,3.2,0.0,0.0,0,1029.8,0,0,"",93
"2022-04-29 03:08:00",4.2,3.2,0.0,0.0,0,1029.8,0,1,"",93
"2022-04-29 03:09:00",4.1,3.1,0.0,0.0,0,1029.9,0,1,"",93
"2022-04-29 03:10:00",4.1,3.1,0.0,0.0,0,1029.8,0,1,"",93
"2022-04-29 03:11:00",4.1,3.1,0.0,0.0,0,1029.8,0,1,"",93
"2022-04-29 03:12:00",4.1,3.1,0.0,0.0,0,1029.8,0,0,"",93
"2022-04-29 03:13:00",4.1,3.1,0.0,0.0,0,1029.8,0,0,"",93
"2022-04-29 03:14:00",4.0,3.0,0.0,0.0,0,1029.8,0,0,"",93
"2022-04-29 03:15:00",4.1,3.1,0.0,0.0,0,1029.8,0,0,"",93
"2022-04-29 03:16:00",4.0,3.0,0.0,0.0,0,1029.8,0,0,"",93
"2022-04-29 03:17:00",4.1,3.1,0.0,0.0,0,1029.8,0,0,"",93
"2022-04-29 03:18:00",4.0,3.0,0.0,0.0,0,1029.8,0,0,"",93
"2022-04-29 03:19:00",3.9,2.9,0.0,0.0,0,1029.8,0,0,"",93
"2022-04-29 03:20:00",3.9,2.9,0.0,0.0,0,1029.9,0,0,"",93
"2022-04-29 03:21:00",3.9,2.9,0.0,0.0,0,1029.8,0,1,"",93
"2022-04-29 03:22:00",3.8,2.8,0.0,0.0,0,1029.9,0,1,"",93
"2022-04-29 03:23:00",3.8,2.8,0.0,0.0,0,1029.9,0,1,"",93
"2022-04-29 03:24:00",3.8,2.8,0.0,0.0,0,1029.8,1,1,"",93
"2022-04-29 03:25:00",3.8,2.8,0.0,0.0,0,1029.8,1,1,"",93
"2022-04-29 03:26:00",3.7,2.7,0.0,0.0,0,1029.8,0,1,"",93
"2022-04-29 03:27:00",3.7,2.7,0.0,0.0,0,1029.8,0,1,"",93
"2022-04-29 03:28:00",3.7,2.7,0.0,0.0,0,1029.8,0,1,"",93
"2022-04-29 03:29:00",3.7,2.7,0.0,0.0,0,1029.8,0,0,"",93
"2022-04-29 03:30:00",3.7,2.7,0.0,0.0,0,1029.8,0,1,"",93
"2022-04-29 03:31:00",3.8,2.9,0.0,0.0,0,1029.7,0,0,"",94
"2022-04-29 03:32:00",3.7,2.7,0.0,0.0,0,1029.7,0,0,"",93
"2022-04-29 03:33:00",3.7,2.7,0.0,0.0,0,1029.7,0,0,"",93
"2022-04-29 03:34:00",3.7,2.7,0.0,0.0,0,1029.7,0,0,"",93
"2022-04-29 03:35:00",3.7,2.7,0.0,0.0,0,1029.7,0,0,"",93
"2022-04-29 03:36:00",3.6,2.6,0.0,0.0,0,1029.7,0,1,"",93
"2022-04-29 03:37:00",3.6,2.6,0.0,0.0,0,1029.7,0,1,"",93
"2022-04-29 03:38:00",3.5,2.5,0.0,0.0,0,1029.8,0,1,"",93
"2022-04-29 03:39:00",3.5,2.5,0.0,0.0,0,1029.8,0,1,"",93
"2022-04-29 03:40:00",3.5,2.5,0.0,0.0,0,1029.8,0,1,"",93
"2022-04-29 03:41:00",3.4,2.4,0.0,0.0,0,1029.8,0,0,"",93
"2022-04-29 03:42:00",3.4,2.4,0.0,0.0,0,1029.8,0,1,"",93
"2022-04-29 03:43:00",3.4,2.4,0.0,0.0,0,1029.8,0,0,"",93
"2022-04-29 03:44:00",3.4,2.4,0.0,0.0,0,1029.8,0,0,"",93
"2022-04-29 03:45:00",3.4,2.4,0.0,0.0,0,1029.7,0,0,"",93
"2022-04-29 03:46:00",3.4,2.5,0.0,0.0,0,1029.8,0,0,"",94
"2022-04-29 03:47:00",3.4,2.5,0.0,0.0,0,1029.7,0,0,"",94
"2022-04-29 03:48:00",3.4,2.5,0.0,0.0,0,1029.7,0,0,"",94
"2022-04-29 03:49:00",3.4,2.5,0.0,0.0,0,1029.8,0,0,"",94
"2022-04-29 03:50:00",3.3,2.4,0.0,0.0,0,1029.7,0,1,"",94
"2022-04-29 03:51:00",3.3,2.4,0.0,0.0,0,1029.7,0,0,"",94
"2022-04-29 03:52:00",3.3,2.4,0.0,0.0,0,1029.7,0,0,"",94
"2022-04-29 03:53:00",3.3,2.4,0.0,0.0,0,1029.7,0,1,"",94
"2022-04-29 03:54:00",3.3,2.4,0.0,0.0,0,1029.7,0,1,"",94
"2022-04-29 03:55:00",3.3,2.4,0.0,0.0,0,1029.8,0,0,"",94
"2022-04-29 03:56:00",3.3,2.4,0.0,0.0,0,1029.7,0,1,"",94
"2022-04-29 03:57:00",3.2,2.3,0.0,0.0,0,1029.8,0,0,"",94
"2022-04-29 03:58:00",3.3,2.4,0.0,0.0,0,1029.8,0,0,"",94
"2022-04-29 03:59:00",3.2,2.3,0.0,0.0,0,1029.8,0,1,"",94
"2022-04-29 04:00:00",3.2,2.3,0.0,0.0,0,1029.7,0,1,"",94
"2022-04-29 04:01:00",3.2,2.3,0.0,0.0,0,1029.7,0,0,"",94
"2022-04-29 04:02:00",3.2,2.3,0.0,0.0,0,1029.7,0,0,"",94
"2022-04-29 04:03:00",3.2,2.3,0.0,0.0,0,1029.7,0,0,"",94
"2022-04-29 04:04:00",3.2,2.3,0.0,0.0,0,1029.7,0,1,"",94
"2022-04-29 04:05:00",3.2,2.3,0.0,0.0,0,1029.7,0,0,"",94
"2022-04-29 04:06:00",3.2,2.3,0.0,0.0,0,1029.7,0,0,"",94
"2022-04-29 04:07:00",3.2,2.3,0.0,0.0,0,1029.8,0,1,"",94
"2022-04-29 04:08:00",3.2,2.3,0.0,0.0,0,1029.7,0,1,"",94
"2022-04-29 04:09:00",3.2,2.3,0.0,0.0,0,1029.8,0,0,"",94
"2022-04-29 04:10:00",3.2,2.3,0.0,0.0,0,1029.8,0,0,"",94
"2022-04-29 04:11:00",3.2,2.3,0.0,0.0,0,1029.8,0,1,"",94
"2022-04-29 04:12:00",3.1,2.2,0.0,0.0,0,1029.8,0,1,"",94
"2022-04-29 04:13:00",3.1,2.2,0.0,0.0,0,1029.8,0,1,"",94
"2022-04-29 04:14:00",3.1,2.2,0.0,0.0,0,1029.7,0,1,"",94
"2022-04-29 04:15:00",3.1,2.2,0.0,0.0,0,1029.7,0,1,"",94
"2022-04-29 04:16:00",3.1,2.2,0.0,0.0,0,1029.7,0,0,"",94
"2022-04-29 04:17:00",3.1,2.2,0.0,0.0,0,1029.7,0,0,"",94
"2022-04-29 04:18:00",3.1,2.2,0.0,0.0,0,1029.7,0,0,"",94
"2022-04-29 04:19:00",3.2,2.3,0.0,0.0,0,1029.7,0,0,"",94
"2022-04-29 04:20:00",3.2,2.3,0.0,0.0,0,1029.7,0,0,"",94
"2022-04-29 04:21:00",3.2,2.3,0.0,0.0,0,1029.7,0,0,"",94
"2022-04-29 04:22:00",3.1,2.2,0.0,0.0,0,1029.7,0,0,"",94
"2022-04-29 04:23:00",3.1,2.2,0.0,0.0,0,1029.7,0,0,"",94
"2022-04-29 04:24:00",3.1,2.2,0.0,0.0,0,1029.7,0,0,"",94
"2022-04-29 04:25:00",3.1,2.2,0.0,0.0,0,1029.7,0,0,"",94
"2022-04-29 04:26:00",3.1,2.2,0.0,0.0,0,1029.7,0,1,"",94
"2022-04-29 04:27:00",3.1,2.2,0.0,0.0,0,1029.7,0,1,"",94
"2022-04-29 04:28:00",3.1,2.2,0.0,0.0,0,1029.7,0,0,"",94
"2022-04-29 04:29:00",3.1,2.2,0.0,0.0,0,1029.7,0,0,"",94
"2022-04-29 04:30:00",3.1,2.2,0.0,0.0,0,1029.7,0,1,"",94
"2022-04-29 04:31:00",3.0,2.1,0.0,0.0,0,1029.7,0,0,"",94
"2022-04-29 04:32:00",3.0,2.1,0.0,0.0,0,1029.7,0,0,"",94
"2022-04-29 04:33:00",3.0,2.1,0.0,0.0,0,1029.7,0,0,"",94
"2022-04-29 04:34:00",3.0,2.1,0.0,0.0,0,1029.7,0,0,"",94
"2022-04-29 04:35:00",2.9,2.0,0.0,0.0,0,1029.7,0,0,"",94
"2022-04-29 04:36:00",2.9,2.0,0.0,0.0,0,1029.7,0,0,"",94
"2022-04-29 04:37:00",2.9,2.0,0.0,0.0,0,1029.7,0,0,"",94
"2022-04-29 04:38:00",2.9,2.0,0.0,0.0,0,1029.7,0,1,"",94
"2022-04-29 04:39:00",2.9,2.0,0.0,0.0,0,1029.7,0,1,"",94
"2022-04-29 04:40:00",2.9,2.0,0.0,0.0,0,1029.7,0,0,"",94
"2022-04-29 04:41:00",2.9,2.0,0.0,0.0,0,1029.6,0,0,"",94
"2022-04-29 04:42:00",2.9,2.0,0.0,0.0,0,1029.7,0,0,"",94
"2022-04-29 04:43:00",2.9,2.0,0.0,0.0,0,1029.6,0,1,"",94
"2022-04-29 04:44:00",2.9,2.0,0.0,0.0,0,1029.7,0,1,"",94
"2022-04-29 04:45:00",2.9,2.0,0.0,0.0,0,1029.7,0,0,"",94
"2022-04-29 04:46:00",2.9,2.0,0.0,0.0,0,1029.7,0,0,"",94
"2022-04-29 04:47:00",2.9,2.0,0.0,0.0,0,1029.6,0,1,"",94
"2022-04-29 04:48:00",2.9,2.0,0.0,0.0,0,1029.7,0,0,"",94
"2022-04-29 04:49:00",2.8,1.9,0.0,0.0,0,1029.6,0,1,"",94
"2022-04-29 04:50:00",2.8,1.9,0.0,0.0,0,1029.6,0,1,"",94
"2022-04-29 04:51:00",2.8,1.9,0.0,0.0,0,1029.6,0,0,"",94
"2022-04-29 04:52:00",2.8,1.9,0.0,0.0,0,1029.6,0,1,"",94
"2022-04-29 04:53:00",2.9,2.0,0.0,0.0,0,1029.6,1,1,"",94
"2022-04-29 04:54:00",2.9,2.0,0.0,0.0,0,1029.6,0,1,"",94
"2022-04-29 04:55:00",2.9,2.0,0.0,0.0,0,1029.5,0,0,"",94
"2022-04-29 04:56:00",2.9,2.0,0.0,0.0,0,1029.6,0,0,"",94
"2022-04-29 04:57:00",2.9,2.0,0.0,0.0,0,1029.6,0,1,"",94
"2022-04-29 04:58:00",2.9,2.0,0.0,0.0,0,1029.6,0,0,"",94
"2022-04-29 04:59:00",2.9,2.0,0.0,0.0,0,1029.6,0,0,"",94
"2022-04-29 05:00:00",2.9,2.0,0.0,0.0,0,1029.6,0,0,"",94
"2022-04-29 05:01:00",2.9,2.0,0.0,0.0,0,1029.6,0,0,"",94
"2022-04-29 05:02:00",2.9,2.0,0.0,0.0,0,1029.6,0,0,"",94
"2022-04-29 05:03:00",2.8,1.9,0.0,0.0,0,1029.6,0,0,"",94
"2022-04-29 05:04:00",2.8,1.9,0.0,0.0,0,1029.6,0,0,"",94
"2022-04-29 05:05:00",2.8,1.9,0.0,0.0,0,1029.7,0,0,"",94
"2022-04-29 05:06:00",2.8,1.9,0.0,0.0,0,1029.6,0,0,"",94
"2022-04-29 05:07:00",2.8,1.9,0.0,0.0,0,1029.6,0,0,"",94
"2022-04-29 05:08:00",2.8,1.9,0.0,0.0,0,1029.6,0,0,"",94
"2022-04-29 05:09:00",2.8,1.9,0.0,0.0,0,1029.6,0,0,"",94
"2022-04-29 05:10:00",2.8,1.9,0.0,0.0,0,1029.6,0,0,"",94
"2022-04-29 05:11:00",2.8,1.9,0.0,0.0,0,1029.6,0,1,"",94
"2022-04-29 05:12:00",2.8,1.9,0.0,0.0,0,1029.6,0,1,"",94
"2022-04-29 05:13:00",2.8,1.9,0.0,0.0,0,1029.6,0,0,"",94
"2022-04-29 05:14:00",2.8,1.9,0.0,0.0,0,1029.6,0,0,"",94
"2022-04-29 05:15:00",2.7,1.8,0.0,0.0,0,1029.6,0,1,"",94
"2022-04-29 05:16:00",2.7,1.8,0.0,0.0,0,1029.6,0,0,"",94
"2022-04-29 05:17:00",2.7,1.8,0.0,0.0,0,1029.5,0,0,"",94
"2022-04-29 05:18:00",2.7,1.8,0.0,0.0,0,1029.6,0,1,"",94
"2022-04-29 05:19:00",2.7,1.8,0.0,0.0,0,1029.6,0,1,"",94
"2022-04-29 05:20:00",2.7,1.8,0.0,0.0,0,1029.6,0,0,"",94
"2022-04-29 05:21:00",2.7,1.8,0.0,0.0,0,1029.6,0,1,"",94
"2022-04-29 05:22:00",2.7,1.8,0.0,0.0,0,1029.6,0,0,"",94
"2022-04-29 05:23:00",2.7,1.8,0.0,0.0,0,1029.6,0,1,"",94
"2022-04-29 05:24:00",2.7,1.8,0.0,0.0,0,1029.6,0,1,"",94
"2022-04-29 05:25:00",2.6,1.7,0.0,0.0,0,1029.6,0,1,"",94
"2022-04-29 05:26:00",2.6,1.7,0.0,0.0,0,1029.6,0,1,"",94
"2022-04-29 05:27:00",2.7,1.8,0.0,0.0,0,1029.6,0,1,"",94
"2022-04-29 05:28:00",2.7,1.8,0.0,0.0,0,1029.6,0,1,"",94
"2022-04-29 05:29:00",2.7,1.8,0.0,0.0,0,1029.6,0,0,"",94
"2022-04-29 05:30:00",2.8,2.1,0.0,0.0,0,1029.6,0,0,"",95
"2022-04-29 05:31:00",2.7,1.8,0.0,0.0,0,1029.6,0,1,"",94
"2022-04-29 05:32:00",2.7,1.8,0.0,0.0,0,1029.6,0,0,"",94
"2022-04-29 05:33:00",2.6,1.7,0.0,0.0,0,1029.7,0,0,"",94
"2022-04-29 05:34:00",2.6,1.7,0.0,0.0,0,1029.6,0,0,"",94
"2022-04-29 05:35:00",2.6,1.7,0.0,0.0,0,1029.6,0,1,"",94
"2022-04-29 05:36:00",2.6,1.7,0.0,0.0,0,1029.6,0,1,"",94
"2022-04-29 05:37:00",2.6,1.7,0.0,0.0,0,1029.6,0,1,"",94
"2022-04-29 05:38:00",2.6,1.7,0.0,0.0,0,1029.7,0,1,"",94
"2022-04-29 05:39:00",2.6,1.7,0.0,0.0,0,1029.7,0,0,"",94
"2022-04-29 05:40:00",2.6,1.9,0.0,0.0,0,1029.6,0,0,"",95
"2022-04-29 05:41:00",2.6,1.9,0.0,0.0,0,1029.6,0,0,"",95
"2022-04-29 05:42:00",2.6,1.7,0.0,0.0,0,1029.7,0,0,"",94
"2022-04-29 05:43:00",2.5,1.6,0.0,0.0,0,1029.6,0,1,"",94
"2022-04-29 05:44:00",2.4,1.5,0.0,0.0,0,1029.7,0,1,"",94
"2022-04-29 05:45:00",2.3,1.4,0.0,0.0,0,1029.7,0,0,"",94
"2022-04-29 05:46:00",2.3,1.4,0.0,0.0,0,1029.7,0,0,"",94
"2022-04-29 05:47:00",2.3,1.4,0.0,0.0,0,1029.7,0,0,"",94
"2022-04-29 05:48:00",2.3,1.4,0.0,0.0,0,1029.7,0,0,"",94
"2022-04-29 05:49:00",2.3,1.4,0.0,0.0,0,1029.6,0,0,"",94
"2022-04-29 05:50:00",2.3,1.4,0.0,0.0,0,1029.6,0,1,"",94
"2022-04-29 05:51:00",2.3,1.4,0.0,0.0,0,1029.6,0,1,"",94
"2022-04-29 05:52:00",2.3,1.4,0.0,0.0,0,1029.7,0,1,"",94
"2022-04-29 05:53:00",2.3,1.4,0.0,0.0,0,1029.6,0,0,"",94
"2022-04-29 05:54:00",2.2,1.3,0.0,0.0,0,1029.7,0,0,"",94
"2022-04-29 05:55:00",2.2,1.3,0.0,0.0,0,1029.7,0,0,"",94
"2022-04-29 05:56:00",2.2,1.3,0.0,0.0,0,1029.7,0,0,"",94
"2022-04-29 05:57:00",2.2,1.3,0.0,0.0,0,1029.7,0,0,"",94
"2022-04-29 05:58:00",2.2,1.3,0.0,0.0,0,1029.7,0,0,"",94
"2022-04-29 05:59:00",2.2,1.3,0.0,0.0,0,1029.8,0,0,"",94
"2022-04-29 06:00:00",2.2,1.3,0.0,0.0,5,1029.8,0,1,"",94
"2022-04-29 06:01:00",2.2,1.5,0.0,0.0,5,1029.8,0,1,"",95
"2022-04-29 06:02:00",2.2,1.3,0.0,0.0,7,1029.8,0,1,"",94
"2022-04-29 06:03:00",2.1,1.2,0.0,0.0,7,1029.8,0,1,"",94
"2022-04-29 06:04:00",2.1,1.2,0.0,0.0,7,1029.8,0,1,"",94
"2022-04-29 06:05:00",2.1,1.2,0.0,0.0,7,1029.8,0,1,"",94
"2022-04-29 06:06:00",2.1,1.2,0.0,0.0,7,1029.8,0,1,"",94
"2022-04-29 06:07:00",2.2,1.3,0.0,0.0,9,1029.8,0,1,"",94
"2022-04-29 06:08:00",2.1,1.2,0.0,0.0,9,1029.8,0,0,"",94
"2022-04-29 06:09:00",2.1,1.4,0.0,0.0,9,1029.8,0,0,"",95
"2022-04-29 06:10:00",2.1,1.4,0.0,0.0,7,1029.8,0,1,"",95
"2022-04-29 06:11:00",2.1,1.2,0.0,0.0,7,1029.8,0,1,"",94
"2022-04-29 06:12:00",2.1,1.2,0.0,0.0,7,1029.8,0,1,"",94
"2022-04-29 06:13:00",2.1,1.2,0.0,0.0,7,1029.9,0,1,"",94
"2022-04-29 06:14:00",2.1,1.4,0.0,0.0,7,1029.9,0,1,"",95
"2022-04-29 06:15:00",2.2,1.5,0.0,0.0,9,1029.9,0,0,"",95
"2022-04-29 06:16:00",2.2,1.5,0.0,0.0,9,1029.9,0,0,"",95
"2022-04-29 06:17:00",2.1,1.2,0.0,0.0,11,1029.9,0,0,"",94
"2022-04-29 06:18:00",2.1,1.2,0.0,0.0,12,1029.9,0,1,"",94
"2022-04-29 06:19:00",2.1,1.2,0.0,0.0,12,1029.9,0,1,"",94
"2022-04-29 06:20:00",2.0,1.1,0.0,0.0,14,1030.0,0,1,"",94
"2022-04-29 06:21:00",2.0,1.1,0.0,0.0,12,1029.9,0,0,"",94
"2022-04-29 06:22:00",2.1,1.2,0.0,0.0,12,1029.9,0,0,"",94
"2022-04-29 06:23:00",2.1,1.4,0.0,0.0,12,1029.9,0,0,"",95
"2022-04-29 06:24:00",2.1,1.4,0.0,0.0,11,1030.0,0,1,"",95
"2022-04-29 06:25:00",2.1,1.4,0.0,0.0,11,1029.9,0,1,"",95
"2022-04-29 06:26:00",2.1,1.4,0.0,0.0,9,1029.9,0,1,"",95
"2022-04-29 06:27:00",2.1,1.4,0.0,0.0,9,1029.9,0,0,"",95
"2022-04-29 06:28:00",2.1,1.4,0.0,0.0,9,1029.9,0,0,"",95
"2022-04-29 06:29:00",2.1,1.4,0.0,0.0,9,1029.9,0,0,"",95
"2022-04-29 06:30:00",2.0,1.1,0.0,0.0,9,1030.0,0,0,"",94
"2022-04-29 06:31:00",1.9,1.0,0.0,0.0,11,1029.9,0,0,"",94
"2022-04-29 06:32:00",1.9,1.2,0.0,0.0,11,1029.9,0,0,"",95
"2022-04-29 06:33:00",1.9,1.2,0.0,0.0,11,1029.9,0,0,"",95
"2022-04-29 06:34:00",1.9,1.2,0.0,0.0,11,1029.9,0,0,"",95
"2022-04-29 06:35:00",2.0,1.3,0.0,0.0,11,1030.0,0,0,"",95
"2022-04-29 06:36:00",2.1,1.4,0.0,0.0,11,1030.0,0,1,"",95
"2022-04-29 06:37:00",2.1,1.4,0.0,0.0,12,1030.0,0,1,"",95
"2022-04-29 06:38:00",2.1,1.4,0.0,0.0,12,1030.0,0,1,"",95
"2022-04-29 06:39:00",2.0,1.3,0.0,0.0,14,1030.0,0,1,"",95
"2022-04-29 06:40:00",1.9,1.2,0.0,0.0,16,1030.0,0,1,"",95
"2022-04-29 06:41:00",1.9,1.2,0.0,0.0,19,1030.0,1,1,"",95
"2022-04-29 06:42:00",1.9,1.2,0.0,0.0,21,1030.0,0,1,"",95
"2022-04-29 06:43:00",1.9,1.2,0.0,0.0,26,1030.1,0,1,"",95
"2022-04-29 06:44:00",2.0,1.3,0.0,0.0,28,1030.1,0,0,"",95
"2022-04-29 06:45:00",2.1,1.4,0.0,0.0,30,1030.0,0,0,"",95
"2022-04-29 06:46:00",2.1,1.4,0.0,0.0,30,1030.1,0,1,"",95
"2022-04-29 06:47:00",2.1,1.4,0.0,0.0,30,1030.1,0,1,"",95
"2022-04-29 06:48:00",2.1,1.4,0.0,0.0,32,1030.1,0,1,"",95
"2022-04-29 06:49:00",2.1,1.4,0.0,0.0,32,1030.1,1,1,"",95
"2022-04-29 06:50:00",2.1,1.4,0.0,0.0,32,1030.1,0,1,"",95
"2022-04-29 06:51:00",2.1,1.4,0.0,0.0,33,1030.1,0,1,"",95
"2022-04-29 06:52:00",2.1,1.4,0.0,0.0,33,1030.1,0,1,"",95
"2022-04-29 06:53:00",2.2,1.5,0.0,0.0,33,1030.1,0,1,"",95
"2022-04-29 06:54:00",2.3,1.6,0.0,0.0,33,1030.1,0,1,"",95
"2022-04-29 06:55:00",2.3,1.6,0.0,0.0,35,1030.2,0,1,"",95
"2022-04-29 06:56:00",2.4,1.7,0.0,0.0,35,1030.2,0,1,"",95
"2022-04-29 06:57:00",2.4,1.7,0.0,0.0,35,1030.2,0,1,"",95